Regional Weather Roundup
Issued by NWS

Home | Current Version | Previous Version | Text Only | Print | Product List | Glossary Off
Versions: 1 2 3 4 5 6 7 8 9 10 11 12 13 14 15 16 17 18 19 20 21 22 23 24 25 26 27 28 29 30 31 32 33 34 35 36 37 38 39 40 41 42 43 44 45 46 47 48 49 50

000
ASUS44 KOUN 260410
RWROK

WEATHER ROUNDUP FOR OKLAHOMA
NATIONAL WEATHER SERVICE NORMAN OK
1100 PM CDT SAT JUN 25 2016

NOTE: "FAIR" INDICATES FEW OR NO CLOUDS BELOW 12,000 FEET WITH NO
      SIGNIFICANT WEATHER AND/OR OBSTRUCTIONS TO VISIBILITY.

OKZ001>007-009>012-014-015-017-260500-
NORTHWEST OKLAHOMA AND THE PANHANDLE

CITY           SKY/WX    TMP DP  RH WIND       PRES   REMARKS
GAGE           PTCLDY    79  64  60 S10       30.04R
GUYMON         LGT RAIN  72  64  76 NW9       30.11R
ENID/WOODRING  CLEAR     82  70  65 SE8       30.00R
$$

OKZ016-021>023-033>039-044-045-260500-
SOUTHWEST OKLAHOMA

CITY           SKY/WX    TMP DP  RH WIND       PRES   REMARKS
LAWTON/REGL    PTCLDY    82  72  71 S9        30.01R
LAWTON/FT SILL PTCLDY    82  73  76 S10       30.00R
FREDERICK      MOCLDY    82  73  74 S10       29.98R
CLINTON        CLEAR     80  66  62 S13       30.06R
HOBART         PTCLDY    80  68  66 S7        30.03R
ALTUS AFB      CLOUDY    82  67  60 S12       30.00R
$$

OKZ018>020-024>031-260500-
CENTRAL OKLAHOMA

CITY           SKY/WX    TMP DP  RH WIND       PRES   REMARKS
OKLAHOMA CITY  PTCLDY    80  71  74 S8        30.03R
OKC/WILEY POST CLEAR     83  70  64 S9        30.04R
OKC/TINKER AFB CLEAR     80  72  75 S9        30.03R
STILLWATER     CLEAR     84  70  62 SE8       30.02R
GUTHRIE        CLEAR     83  72  69 S9        30.02R
$$

OKZ008-013-054>072-260500-
NORTHEAST OKLAHOMA

CITY           SKY/WX    TMP DP  RH WIND       PRES   REMARKS
TULSA          CLEAR     86  73  65 S8        30.01R HX  93
TULSA/JONES    CLEAR     85  70  60 S5        30.02R
PONCA CITY     CLEAR     85  69  58 SE14      29.99R
BARTLESVILLE   CLEAR     77  70  79 S5        30.02R
MUSKOGEE       CLEAR     79  71  76 S3        30.03R
$$

OKZ032-040>043-046>053-073>077-260500-
SOUTH CENTRAL/SOUTHEAST OKLAHOMA

CITY           SKY/WX    TMP DP  RH WIND       PRES   REMARKS
ARDMORE/DWNTWN CLOUDY    81  70  69 CALM      30.02R
MCALESTER      PTCLDY    83  71  67 S5        30.03R
$$




USA.gov is the U.S. government's official web portal to all federal, state and local government web resources and services.